(389) Industria
ephemeris date magn radius delta ra dec elong phase
Today16 Sep 202513.32.495 AU3.002 AU14h40m-20°08'51.0°18.3°
Opposition11 Aug 202611.62.711 AU1.703 AU21h17m-07°35'172.1°2.9°
(389) Industria - 2025-09-16
astro.vanbuitenen.nl


 
-1 year
-1 month
-1 day
Now
+1 day
+1 month
+1 year

The interactive orbit chart above shows the body's path through the solar system and its position at the given date. Green and blue lines are shown perpendicular to the ecliptic plane: Green if the path is above the ecliptic plane, blue if it is below. (Left-click and drag to rotate the view; Right-click and drag to move the view; Use scroll wheel to zoom in our out.)

The orbital elements of Industria are:

            e (Eccentricity)                : 0.0662808
            a (Semimajor axis)              : 2.6080366
            i (Inclination)                 : 8.12337
            Ω (Longitude of ascending node) : 282.02288
            ω (Argument of perihelion)      : 267.84968
            M (Mean anomaly)                : 14.88258
            Epoch                           : 2025 May 05

            L (Longitude of perihelion)     : 9.85079
            B (Latitude of perihelion)      : -8.11761
            P (Orbital period in years)     : 4.21            
        

The light curve chart below shows the estimated development of the minor planet's magnitude.


The all-sky chart below shows the path of the minor planet over the same period as the light curve. The current position is marked yellow.





The following chart shows the path of the minor planet in the next few days. The field of view is optimized for (~10x50) binoculars and finderscopes. A more printer-friendly version of the same chart can be found below.




Ephemerides:
Date       Time       RA (2000)    DEC (2000)    delta   radius  elong  phase   PA    magn
2025-09-16 00:00 UT   14 40 16.8   -20 08 56     3.002    2.495   51.0   18.3   111   13.3 
2025-09-16 10:50 UT   14 41 03.7   -20 11 25     3.007    2.495   50.7   18.2   111   13.3 
2025-09-17 00:00 UT   14 42 00.7   -20 14 25     3.012    2.495   50.4   18.1   111   13.3 
2025-09-18 00:00 UT   14 43 44.9   -20 19 53     3.022    2.496   49.9   17.9   111   13.3 
2025-09-19 00:00 UT   14 45 29.6   -20 25 21     3.032    2.497   49.3   17.8   111   13.3 
2025-09-20 00:00 UT   14 47 14.6   -20 30 47     3.042    2.497   48.8   17.6   111   13.3 
2025-09-21 00:00 UT   14 49 00.0   -20 36 12     3.052    2.498   48.2   17.4   111   13.3 
2025-09-22 00:00 UT   14 50 45.8   -20 41 36     3.062    2.498   47.7   17.3   111   13.3 
2025-09-23 00:00 UT   14 52 31.9   -20 46 59     3.071    2.499   47.1   17.1   111   13.3 
2025-09-24 00:00 UT   14 54 18.5   -20 52 21     3.081    2.499   46.5   16.9   111   13.3 
2025-09-25 00:00 UT   14 56 05.3   -20 57 41     3.090    2.500   46.0   16.8   111   13.3 
2025-09-26 00:00 UT   14 57 52.6   -21 02 59     3.100    2.501   45.4   16.6   110   13.3 
2025-09-27 00:00 UT   14 59 40.1   -21 08 16     3.109    2.501   44.9   16.4   110   13.3 
2025-09-28 00:00 UT   15 01 28.1   -21 13 32     3.119    2.502   44.3   16.3   110   13.3 
2025-09-29 00:00 UT   15 03 16.3   -21 18 46     3.128    2.502   43.8   16.1   110   13.3 
2025-09-30 00:00 UT   15 05 04.9   -21 23 57     3.137    2.503   43.2   15.9   110   13.3 
2025-10-01 00:00 UT   15 06 53.8   -21 29 07     3.146    2.503   42.7   15.7   110   13.3 
2025-10-02 00:00 UT   15 08 43.1   -21 34 15     3.155    2.504   42.1   15.6   110   13.3 
2025-10-03 00:00 UT   15 10 32.7   -21 39 21     3.164    2.505   41.6   15.4   110   13.3 
2025-10-04 00:00 UT   15 12 22.6   -21 44 25     3.172    2.505   41.0   15.2   110   13.3 
2025-10-05 00:00 UT   15 14 12.8   -21 49 26     3.181    2.506   40.5   15.0   110   13.3 


    Terminology:
            
    delta:  distance between minor planet and earth in AU
    radius: distance between minor planet and sun in AU
    magn:   magnitude (brightness) estimate    
    ra:     right ascension in hours (24h = 360deg)
    dec:    declination in degrees
    elong:  elongation in degrees (angle sun-earth-minor planet)    
    phase:  phase angle in degrees (angle sun-minor planet-earth)        
    AU:     Astronomical Unit (mean distance between earth and sun: 149597870.7 km
    

Orbital elements provided by the MPC (Minor Planet Center).
Calculations by a modified version of AAPlus, a C# implementation of the AA+ project by PJ Naughter from the algorithms presented in the book "Astronomical Algorithms" by Jean Meeus.
NGC2000 dso catalog and star labels from VizieR as provided by the Strasbourg astronomical Data Center.
Tycho2 catalog from the ESO archive.